This is the latest recevied weather packets stored in our database for station/object AD8AK. If no packets are shown the sender has not sent any weather packets the latest 10 day(s).
| Time | Temp. | Humidity | Pressure | Rain* | Wind** | Luminosity | Snow |
|---|---|---|---|---|---|---|---|
| 1777839372 | 16.11° C | 36% | 1012.7 hPa | 0 mm | - | - | - |
| 1777839069 | 16.11° C | 36% | 1012.9 hPa | 0 mm | - | - | - |
| 1777838765 | 16.11° C | 36% | 1013 hPa | 0 mm | - | - | - |
| 1777838462 | 16.11° C | 36% | 1012.9 hPa | 0 mm | - | - | - |
| 1777838159 | 16.11° C | 37% | 1012.9 hPa | 0 mm | - | - | - |
| 1777837856 | 16.11° C | 37% | 1013.3 hPa | 0 mm | - | - | - |
| 1777837553 | 16.11° C | 34% | 1013.1 hPa | 0 mm | - | - | - |
| 1777837253 | 16.11° C | 36% | 1013.5 hPa | 0 mm | - | - | - |
| 1777836950 | 16.11° C | 37% | 1013.2 hPa | 0 mm | - | - | - |
| 1777836645 | 16.11° C | 37% | 1013.3 hPa | 0 mm | - | - | - |
| 1777836341 | 16.11° C | 35% | 1013.3 hPa | 0 mm | - | - | - |
| 1777836037 | 16.11° C | 35% | 1013.3 hPa | 0 mm | - | - | - |
| 1777835734 | 16.11° C | 38% | 1013.5 hPa | 0 mm | - | - | - |
| 1777835431 | 16.11° C | 35% | 1013.5 hPa | 0 mm | - | - | - |
| 1777835128 | 16.11° C | 36% | 1013.7 hPa | 0 mm | - | - | - |
| 1777834825 | 16.11° C | 34% | 1013.8 hPa | 0 mm | - | - | - |
| 1777834521 | 15.56° C | 36% | 1013.8 hPa | 0 mm | - | - | - |
| 1777834221 | 16.11° C | 36% | 1013.9 hPa | 0 mm | - | - | - |
| 1777833917 | 16.11° C | 37% | 1014 hPa | 0 mm | - | - | - |
| 1777833613 | 16.11° C | 37% | 1014.1 hPa | 0 mm | - | - | - |
| 1777833310 | 16.11° C | 37% | 1014.4 hPa | 0 mm | - | - | - |
| 1777833007 | 16.11° C | 35% | 1014.1 hPa | 0 mm | - | - | - |
| 1777832706 | 16.11° C | 37% | 1014.2 hPa | 0 mm | - | - | - |
| 1777832403 | 16.11° C | 37% | 1014.2 hPa | 0 mm | - | - | - |
| 1777832100 | 16.11° C | 36% | 1014.3 hPa | 0 mm | - | - | - |
* Rain latest hour (hover to see other rain measurements)
** Current wind speed in m/s (hover to see current wind gust speed)